Location: Unspecified
(22.6800°N, 112.2000°E)
Time: 12:27:54
(UTC+08:00)

Transit 4A - Visible Passes

Search period start: 01 August 2021 00:00
Search period end: 11 August 2021 00:00
Orbit: 872 x 972 km, 66.8° (Epoch: 31 July)

Date Brightness Start Highest point End Pass type
(mag) Time Alt. Az. Time Alt. Az. Time Alt. Az.
06 Aug 10.5 22:52:39 10° NNE 22:52:39 10° NNE 22:52:44 10° NNE visible
07 Aug 10.4 23:00:54 13° N 23:00:54 13° N 23:01:35 10° N visible
08 Aug 10.4 23:08:56 14° NNW 23:08:56 14° NNW 23:10:04 10° NNW visible
09 Aug 9.8 21:33:14 17° NNE 21:33:14 17° NNE 21:34:27 10° NNE visible
09 Aug 10.6 23:16:38 12° NW 23:16:38 12° NW 23:17:42 10° NNW visible
10 Aug 8.8 21:40:20 37° NNE 21:40:20 37° NNE 21:43:45 10° NNE visible
